logo dgac
Martes 21 de Septiembre del 2021
Buscar por aerodromo o helipuerto
Ingrese nombre de aeródromo, localidad o designador OACI:

Aeródromo: Alto Palena (PUB) (SCAP)

Ubicación: Palena, X Región, Chile (43º 36' 42'' S, 71º 48' 19'' W) Ver ubicación en el mapa

Pistas

Orientación Dimensión Pendiente Superficie Resistencia APCH THR RWY PAPI
07/25 876 x 18 0,50 ASPH PCN 27 F/A/Y/T No No No No
Horas de operación HJ
Elevación 273 m / 897 ft
Otra Información Adm : DGAC
Uso : PUB
TEL 652486286
Ubicado a 1 km N de Palena


Cámaras de Aeródromos. www.dgac.gob.cl.

Otra información ver AIP-Chile Volumen I AD 3.9-15.2-P
CCCM/FCCV Descargar
andera de Chile
Mapa de Alto Palena (PUB) (SCAP)

Último METAR

METAR SCAP 211000Z AUTO VRB01KT 9999 ////// 00/M01 Q1028

Último TAF

No hay tafs registrados para este aeródromo

Últimas fotos cámaras

Imagen aerodromo Alto Palena (PUB) (SCAP) Este tomada el 21-09-2021 11:31:27 Imagen aerodromo Alto Palena (PUB) (SCAP) Oeste tomada el 21-09-2021 11:32:06

Último NOTAM

C3804/21 NOTAMR C2882/21 Q)SCTZ/QMRLX/IV/BO/A/000/999/4337S07148W005 A)SCAP B)2108271938 C)2110291930 E)RWY 07/25 CTN ZANJA DE DRENAJE AGUAS LLUVIAS DE WID 1M Y DPT 0.7M. LOC A 16M DEL COSTADO N DE BORDE DE RWY. INSTRUCCIONES: ALTO PALENA INFO 126.7MHZ